Location: Unspecified
(0.0000°N, 0.0000°E)
Time: 05:12:28
(UTC+02:00)

Cosmos 2369 Rocket - Visible Passes

Search period start: 30 September 2016 00:00
Search period end: 10 October 2016 00:00
Orbit: 829 x 852 km, 71.0° (Epoch: 28 September)

Date Brightness Start Highest point End Pass type
(mag) Time Alt. Az. Time Alt. Az. Time Alt. Az.
04 Oct 4.3 22:10:59 10° NNW 22:12:14 17° NNW 22:12:14 17° NNW visible
05 Oct 3.0 21:55:38 10° NNW 21:59:37 44° NW 21:59:37 44° NW visible
06 Oct 2.5 21:40:17 10° NNW 21:45:55 66° WSW 21:48:40 31° S visible
07 Oct 2.4 21:24:57 10° NNW 21:30:36 72° WSW 21:36:18 10° S visible
08 Oct 2.3 21:09:36 10° NNW 21:15:18 78° WSW 21:21:00 10° S visible
09 Oct 2.2 20:54:18 10° NNW 20:59:59 84° WSW 21:05:42 10° SSE visible
